Regional Weather Roundup
Issued by NWS Lake Charles, LA

Home | Current Version | Previous Version | Text Only | Print | Product List | Glossary On
Versions: 1 2 3 4 5 6 7 8 9 10 11 12 13 14 15 16 17 18 19 20 21 22 23 24 25 26 27 28
000
ASUS44 KLCH 290410
RWRLCH
REGIONAL WEATHER ROUNDUP
NATIONAL WEATHER SERVICE LAKE CHARLES LA
1100 PM CDT SUN MAY 28 2017

Note: "fair" indicates few or no clouds below 12,000 feet with no
significant weather and/or obstructions to visibility.


ACROSS SOUTHEAST TEXAS

CITY           SKY/WX    TMP DP  RH WIND       PRES   REMARKS
BEAUMONT       CLOUDY    78  75  90 NW10      30.03R
BEAUMONT CITY  CLOUDY    75  65  70 MISG      30.06R
ORANGE         CLOUDY    78  76  94 N16G22    30.05R
JASPER         LGT RAIN  69  67  93 CALM      30.09R
$$

ACROSS CENTRAL LOUISIANA

CITY           SKY/WX    TMP DP  RH WIND       PRES   REMARKS
LEESVILLE      CLOUDY    68  66  93 NE7       30.04S
FULLERTON      LGT RAIN  69  67  93 N3        30.03F
ALEXANDRIA INT LGT RAIN  67  66  97 S7        30.05R
ESLER FIELD    LGT RAIN  67  67 100 N3        30.03F
DERIDDER       CLOUDY   N/A N/A N/A CALM      30.07R
OAKDALE        CLOUDY    69  66  93 NE5       30.06S
OPELOUSAS      CLOUDY    70  65  84 N14G23    30.07R
$$

ACROSS SOUTHWEST AND SOUTH CENTRAL LOUISIANA

CITY           SKY/WX    TMP DP  RH WIND       PRES   REMARKS
SULPHUR        CLOUDY    75  67  75 N13G24    30.05R
LAKE CHARLES   CLOUDY    76  68  76 N17       30.03R
CHENNAULT INT  NOT AVBL
CAMERON PHI    PTCLDY    81  77  89 SE7       30.01R FOG
DEQUINCY       TSTM      70  65  82 CALM      30.06R
JENNINGS       MOCLDY    74  70  85 N17       30.04R
LAFAYETTE      CLOUDY    77  76  96 N3        30.03S
NEW IBERIA     CLOUDY    78  74  87 NW5       30.03R
ABBEVILLE      CLOUDY    75  75 100 NW3       30.03R
PATTERSON      MOCLDY    78  75  90 CALM      30.02R
SALT POINT       N/A     77  74  90 CALM      29.99R
$$

SELECTED SITES ACROSS THE REGION

CITY           SKY/WX    TMP DP  RH WIND       PRES   REMARKS
HOUSTON BUSH   CLOUDY    80  74  81 E10       29.99R
HOUSTON HOBBY  CLOUDY    81  75  82 E8        30.00R
GALVESTON      CLOUDY    82  78  88 E6        30.03R
COLLEGE STAT   LGT RAIN  70  68  93 S7        30.01R
CONROE         TSTM      69  68  96 E9        30.05R VSB 1
HUNTSVILLE     TSTM      71  69  93 SE3       30.00F FOG
LUFKIN         RAIN      67  67 100 SE13      30.04S
SHREVEPORT     TSTM      69  69 100 S8        29.98S
MONROE         RAIN      70  68  93 S10       29.99S
NATCHEZ MS     TSTM      66  64  93 NW9       30.06R
BATON ROUGE    CLOUDY    79  72  79 W8        30.01R
N.O. INTL ARPT PTCLDY    79  75  87 NW5       29.98R
SLIDELL        CLOUDY    79  73  82 CALM      29.98R
$$

MARINE REPORTS

STATION/POSITION TIME  SKY/WX   TEMP    WIND        PRES    VSBY
                                AIR SEA DIR/SP/G
                 (UTC)          (F)     (DEG/KT/KT) (MB)    (MI)
BUOY 30 S HIGH I 0350            80 80   70/  4/  6 1016.2R
WVE H/P(F/S)=  3/ 6

SEA RIM ST PARK  0300            79      60/  5/  6 1015.7R
PORT ARTHUR      0348            80 81  140/  2/  4 1016.8R
SABINE PASS N    0348            80 84   60/  4/  4 1017.9R
TEXAS POINT      NOT AVBL
CALCASIEU PASS   0348            80 82  160/  5/  7   N/A
LK CHARLES BEACH 0348            74 79              1017.6R
MARSH ISLAND     0300            80                   N/A
FRESH WATER LOCK 0348            78 83  300/  4/  5 1016.3R
AMERADA PASS     0348            78 77   CALM  /  4 1015.7R
$$




USA.gov is the U.S. government's official web portal to all federal, state and local government web resources and services.